Theta_e
285 285 284 285 285 285 285 284 281 277 278 283 284 288 288 288 289 288 288 290 292 293 294 295 296 296 297 299 302 304 306 307 309 313 316 314 313 313
283 283 283 283 283 284 284 283 282 280 277 282 283 285 286 286 287 287 287 289 291 291 292 293 293 294 296 297 298 301 303 305 307 311 315 315 314 312
282 281 281 282 281 281 281 282 281 281 277 279 282 283 283 283 284 285 286 286 286 290 290 291 292 293 294 295 296 297 300 302 304 307 311 314 312 312
280 279 279 279 278 279 279 278 278 278 277 275 278 278 279 281 282 281 283 285 285 288 290 291 291 292 292 293 294 295 296 298 300 302 304 308 311 311
279 278 277 277 277 277 276 276 276 276 276 275 275 277 278 279 279 281 281 282 284 287 289 289 290 290 291 292 292 293 294 296 297 299 300 302 307 308
278 278 277 276 276 275 274 275 275 275 275 274 273 274 275 276 277 276 277 279 279 282 283 284 286 287 288 291 292 292 292 293 294 297 298 299 302 304
277 277 276 276 276 276 275 274 274 273 273 272 272 272 272 273 273 275 275 276 277 278 278 279 280 282 282 287 289 291 292 292 293 294 295 297 298 300
275 275 275 276 276 276 277 277 276 273 272 271 272 272 273 273 274 274 274 273 271 277 276 276 279 279 280 281 285 286 288 290 291 291 292 295 296 297
275 274 274 275 275 274 276 277 277 277 278 275 273 273 273 274 274 273 273 273 273 276 276 274 278 277 280 282 285 286 287 288 288 289 291 291 294 295
275 274 274 274 275 275 274 275 276 276 276 276 276 276 276 276 276 275 275 275 276 277 278 273 276 275 278 279 283 284 285 286 287 289 289 291 292 293
275 275 275 274 276 278 276 274 275 276 279 279 280 280 281 281 281 278 275 273 272 273 277 274 275 275 276 277 278 282 284 285 286 287 288 289 291 291
275 275 277 277 278 278 276 274 271 272 273 273 275 276 277 277 279 277 276 272 272 271 275 273 274 274 271 275 277 278 278 280 283 285 287 288 290 287
274 274 275 277 277 278 277 273 271 274 273 270 270 271 273 274 275 276 277 276 273 272 276 276 273 273 272 271 274 276 276 277 277 278 283 285 288 288
273 274 275 277 276 276 274 274 274 272 268 268 267 268 269 270 272 273 274 274 275 274 276 276 273 272 271 270 270 274 275 276 276 275 276 279 283 287
275 275 277 274 274 272 272 272 270 268 266 265 265 266 269 270 271 271 272 273 273 274 275 275 274 273 272 270 270 271 272 273 275 275 275 275 278 283
276 272 271 272 271 270 268 269 268 267 266 266 266 267 268 267 267 269 268 269 269 269 273 274 274 274 271 271 271 270 272 270 273 274 275 275 278 282
273 268 267 267 266 266 266 266 267 267 266 266 265 265 265 266 266 268 268 267 266 267 268 271 274 274 274 273 270 271 271 272 273 274 274 273 275 279
268 265 265 265 264 265 264 264 265 265 266 265 264 265 265 265 265 266 267 266 266 267 268 270 271 271 271 272 276 272 272 272 274 274 274 271 273 278
264 264 263 263 263 264 264 264 263 265 265 264 264 264 264 264 265 265 265 266 265 266 267 269 270 270 267 266 271 278 274 275 275 273 273 272 273 277
262 261 261 262 262 262 262 262 263 263 263 263 263 263 263 264 264 265 265 264 265 265 265 267 269 270 269 268 269 273 279 276 277 274 273 276 278 284
262 261 261 261 261 261 261 261 261 261 262 261 262 263 263 264 264 265 264 264 265 265 265 266 269 272 273 274 271 271 275 282 281 277 276 276 276 279
261 260 260 260 260 259 259 259 259 260 260 261 261 262 263 263 263 264 264 264 264 265 266 268 270 271 272 273 272 273 276 277 278 278 279 280 278 275
260 259 259 259 259 258 258 258 258 259 259 260 261 261 262 261 263 265 265 265 265 265 266 267 268 270 272 273 274 274 274 273 272 271 271 278 280 280
Wind_Speed
5 5 5 5 5 6 6 6 8 10 12 9 9 8 10 10 12 12 13 19 24 26 25 24 23 22 22 23 23 23 23 24 24 24 23 21 20 21
4 6 6 5 6 6 6 6 7 9 12 9 10 12 11 12 14 14 14 20 22 24 25 25 24 24 23 23 23 23 23 24 25 25 24 22 23 23
6 6 7 7 6 6 6 7 7 8 12 14 11 12 14 15 14 13 13 13 13 23 25 26 26 25 24 25 24 23 23 24 23 25 25 22 22 24
6 7 8 7 8 8 6 9 9 10 10 18 15 12 13 15 16 18 14 11 13 18 27 27 27 27 26 25 26 25 24 23 23 23 23 23 22 24
7 7 8 8 8 7 8 9 8 9 9 11 16 11 12 12 14 14 14 14 12 19 20 22 23 25 26 26 26 26 22 21 22 21 21 21 22 23
7 7 8 8 8 9 9 9 9 9 10 10 13 13 12 12 11 12 12 11 12 12 17 22 28 28 31 27 24 22 22 24 24 22 21 21 21 22
7 8 8 9 14 13 8 9 10 9 9 11 12 12 12 11 12 11 12 12 12 11 12 11 12 10 12 19 16 14 16 17 18 20 20 21 22 22
8 8 8 9 11 15 16 18 16 12 12 11 12 13 16 14 12 11 11 12 14 9 11 12 10 11 13 12 23 29 29 25 22 22 21 21 21 23
8 9 9 8 9 10 14 19 18 21 23 17 17 15 17 14 14 15 14 13 13 12 13 14 10 12 10 13 25 27 27 26 27 28 26 25 23 22
9 9 10 11 10 12 13 14 14 14 15 14 16 17 16 16 16 16 16 16 14 12 11 14 10 12 10 10 25 29 29 29 29 28 27 26 24 23
9 9 9 10 15 20 14 14 15 13 15 23 28 32 32 32 26 13 10 11 12 11 9 12 11 13 11 10 12 26 24 22 25 27 29 27 25 24
8 9 12 12 17 21 13 14 15 15 15 16 14 16 19 17 25 16 11 12 12 12 7 10 11 11 11 8 7 7 10 21 25 26 25 26 25 12
6 6 6 15 18 21 24 12 14 18 16 12 12 11 11 11 9 9 11 10 11 12 10 11 10 10 9 13 10 10 11 12 12 15 23 26 27 20
8 7 7 15 18 22 17 19 22 16 8 9 9 10 10 10 9 10 13 13 12 14 12 13 12 12 12 13 14 9 10 10 11 13 12 20 27 30
7 13 15 13 17 13 15 18 11 6 7 8 9 9 10 10 14 12 12 14 14 14 11 13 12 12 11 12 13 12 15 10 10 12 13 12 13 12
13 1 6 11 12 10 7 8 6 6 7 8 9 10 10 10 10 9 10 10 10 11 11 12 13 12 11 11 11 14 12 11 8 10 11 14 13 13
2 1 2 4 5 5 5 5 6 6 7 7 8 10 10 10 10 9 9 10 11 11 11 9 9 11 11 14 13 14 14 13 12 11 12 13 13 13
1 2 4 5 5 5 5 6 6 7 6 8 9 9 10 10 11 11 10 10 11 11 11 10 10 9 9 12 20 15 15 14 12 11 12 12 14 12
3 3 4 5 5 5 5 6 7 6 8 8 8 9 10 10 12 10 10 10 11 11 11 11 11 9 11 13 13 20 14 11 10 9 10 11 13 13
3 3 4 5 5 5 5 6 7 7 7 8 8 9 9 10 11 10 10 11 11 12 12 11 10 9 10 12 12 17 19 15 12 10 11 10 13 20
3 5 4 5 5 5 5 6 7 7 8 8 8 9 9 9 11 10 11 15 15 11 12 12 12 18 13 12 9 13 13 16 13 8 8 11 11 7
5 5 4 5 5 5 5 5 6 7 7 7 8 8 9 9 11 12 11 11 11 11 12 12 13 11 11 11 11 12 8 2 7 14 19 15 3 2
5 4 4 5 5 5 4 5 6 7 7 7 8 8 9 10 10 10 10 11 11 11 11 12 11 11 10 9 8 7 7 3 4 4 6 19 12 12
Wind_Direction
347 347 334 326 328 321 313 306 301 303 301 304 299 325 320 315 313 314 309 302 303 304 299 299 300 299 299 296 290 288 286 279 274 269 243 237 241 250
337 329 331 327 321 309 302 298 297 294 291 304 298 309 312 307 307 308 303 301 301 301 300 298 295 295 294 293 291 287 284 283 277 269 256 240 243 245
326 330 319 324 317 312 309 303 297 298 292 295 296 301 305 302 302 303 301 302 294 295 295 295 295 293 291 290 288 286 284 280 278 277 275 251 246 249
321 317 315 325 317 315 315 313 308 307 302 301 304 309 306 307 305 301 293 293 297 290 297 295 293 290 290 288 287 284 281 279 277 275 281 274 259 253
311 312 314 317 313 316 313 308 308 303 299 296 301 310 308 311 311 305 302 295 288 290 300 312 311 305 297 294 290 287 285 282 274 271 273 271 265 261
301 303 303 304 307 318 306 305 307 312 306 300 299 305 307 309 306 307 305 312 308 311 310 303 302 297 285 285 286 278 278 280 279 276 268 266 261 256
295 294 296 307 298 295 298 309 306 303 299 296 294 299 303 304 306 309 302 304 302 303 300 301 298 314 315 319 311 294 291 298 294 284 278 272 267 259
290 295 299 300 300 307 301 300 298 296 293 290 289 287 292 294 295 296 301 304 301 290 296 297 301 300 307 302 298 297 297 301 294 289 288 284 273 266
290 295 300 300 306 303 305 299 291 284 285 289 285 280 286 288 290 288 284 283 284 289 291 291 293 286 289 293 295 292 291 288 285 283 282 282 281 275
280 286 290 296 299 303 288 286 283 277 273 268 270 279 278 279 273 273 273 270 270 270 273 285 292 287 289 287 290 292 292 294 295 288 280 276 275 276
275 274 280 286 289 295 302 299 295 299 302 301 297 295 294 295 293 292 286 292 289 287 288 288 294 292 287 294 286 285 292 302 304 285 284 282 276 273
273 275 276 288 300 304 313 317 309 311 306 298 300 302 300 293 291 279 279 276 280 282 275 288 298 303 299 280 287 327 313 307 304 311 299 294 276 262
273 282 283 291 304 320 316 315 300 306 317 312 301 297 300 295 292 293 292 279 277 275 281 285 287 288 276 291 289 295 297 297 293 297 299 302 293 276
273 275 279 295 321 313 315 307 313 328 307 308 305 304 306 304 306 312 306 296 288 288 295 286 280 276 279 281 289 285 281 280 279 283 284 284 281 283
269 269 297 316 312 310 304 310 329 312 312 313 306 300 306 311 307 304 298 293 289 283 278 274 270 273 271 277 282 287 286 282 275 273 279 279 282 279
269 299 290 303 300 298 301 313 310 308 311 303 306 309 308 307 300 302 301 303 297 291 286 274 265 264 268 266 275 276 277 276 278 277 279 277 283 274
271 240 290 294 290 289 296 298 303 307 307 307 310 304 303 306 305 307 301 301 291 296 298 289 277 261 258 262 268 269 274 272 267 267 266 271 274 268
210 263 273 275 281 293 299 301 301 303 308 312 298 302 304 305 305 305 302 298 297 299 298 297 297 293 279 263 248 261 269 267 268 263 258 264 273 277
221 232 258 265 275 286 291 294 298 302 307 295 303 302 304 300 303 302 304 302 300 300 297 302 299 289 288 285 285 267 267 274 272 260 244 244 258 257
192 243 251 261 267 275 284 289 295 299 299 298 301 298 299 303 304 303 308 305 302 302 298 294 288 281 269 275 284 288 282 272 263 249 249 247 250 260
222 239 242 252 261 270 276 281 283 287 292 293 294 298 303 306 303 306 306 304 301 300 299 297 295 291 285 277 264 276 283 306 273 243 265 247 246 237
231 234 239 248 255 260 269 276 281 285 289 291 296 299 301 307 304 306 306 306 303 300 297 297 300 299 289 282 266 277 297 344 69 42 35 19 329 191
233 233 236 245 250 255 260 271 273 280 286 287 295 299 304 305 298 304 302 302 302 305 305 309 311 306 304 298 310 299 290 333 2 359 10 17 45 53